sat.trackr.live / text

‹ back to catalog

ONEWEB-0121

NORAD 47267 · 2020-100K

PAYLOAD ACTIVE UNKNOWN

§ Identity

Operator
Country
UK
Launch date
2020-12-18
Launch site
VOSTO
Launch vehicle
Mass (kg)
RCS (m²)

Purposes: comms

External: N2YO · Heavens-Above · Gunter

§ Orbital elements

Epoch: 2026-09-20T03:10:26.745600Z

Period
109.72 min
Inclination
87.8983°
Eccentricity
0.0002228
Mean motion
13.12442181 rev/d
Perigee alt
1,212.0 km
Apogee alt
1,215.4 km
Semi-major
7,591.9 km
B*
-6.4795e-4
RAAN
331.8117°
Arg perigee
96.4024°
Mean anomaly
263.7358°
Rev number
27,709

§ Raw data

ONEWEB-01211 47267U 20100K   26263.13225400 -.00000220  00000+0 -64795-3 0  99942 47267  87.8983 331.8117 0002228  96.4024 263.7358 13.12442181277090

JSON: /api/v1/satellites/47267 · /tle

For live sub-satellite position, see the globe view (requires WebGL).

§ Visibility from observer

Set your observer location to see the next 7 days of passes ≥ 10°. The values pass through the URL so the page stays shareable.

No JS? Fill the form by hand. The geolocation button needs JavaScript.